Regional Weather Roundup
Issued by NWS

Home | Current Version | Previous Version | Text Only | Print | Product List | Glossary Off
Versions: 1 2 3 4 5 6 7 8 9 10 11 12 13 14 15 16 17 18 19 20 21 22 23 24 25 26 27 28 29 30 31 32 33 34 35 36 37 38 39 40 41 42 43 44 45 46 47 48 49 50

000
ASUS43 KIND 010909
RWRIN

WEATHER ROUNDUP FOR INDIANA
NATIONAL WEATHER SERVICE INDIANAPOLIS IN
400 AM EST SUN MAR 01 2015

NOTE: "FAIR" INDICATES FEW OR NO CLOUDS BELOW 12,000 FEET WITH NO
SIGNIFICANT WEATHER AND/OR OBSTRUCTIONS TO VISIBILITY.

* - STATION DOES NOT REPORT WEATHER SUCH AS PRECIPITATION OR FOG.

+ - STATION NOT QUALITY CONTROLLED BY THE NATIONAL WEATHER SERVICE.
    USE DATA WITH CAUTION...ESPECIALLY DEWPOINT AND RELATIVE
    HUMIDITY OBSERVATIONS.

INZ001>003-010>013-019-020-011000-
NORTHWEST INDIANA

CITY           SKY/WX    TMP DP  RH WIND       PRES   REMARKS
GARY /AIRPORT/ CLOUDY    21  14  74 CALM      30.41F
KNOX *+          N/A     19   9  63 SE3       30.39F
LA PORTE +     CLOUDY    19  17  92 CALM      30.39F
MICHIGAN CITY+ FLURRIES  19  12  73 CALM      30.41F
MONTICELLO +   LGT SNOW  19  17  93 CALM      30.39F
RENSSELAER +   LGT SNOW  21  21 100 E3        30.39F
VALPARAISO     CLOUDY    17  14  88 E3        30.39F

$$

LMZ046-743>745-011000-
SOUTHERN LAKE MICHIGAN

STATION/POSITION TIME  TEMP WIND        PRES
                       AIR  DIR/SP/G
                 (UTC) (F)  (DEG/KT/KT) (MB)
MICHIGAN CITY    0900   18  130/  4/  5   N/A

$$

INZ004-005-014>016-021>024-011000-
NORTH CENTRAL INDIANA

CITY           SKY/WX    TMP DP  RH WIND       PRES   REMARKS
GOSHEN         CLOUDY    16  12  84 E3        30.39F
LOGANSPORT +   LGT SNOW  19  18  93 CALM      30.39F
PERU/GRISSOM   LGT SNOW  19  16  90 E5        30.37F FOG     WCI  12
ROCHESTER +    LGT SNOW  21  19  93 E3        30.39F
SOUTH BEND     CLOUDY    17  13  84 SE6       30.40F WCI   9
WARSAW +       LGT SNOW  18  14  86 CALM      30.38F

$$

INZ006>009-017-018-025>027-011000-
NORTHEAST INDIANA

CITY           SKY/WX    TMP DP  RH WIND       PRES   REMARKS
ANGOLA *+      MOCLDY    14  10  85 CALM      30.37F
FORT WAYNE     LGT SNOW  17  14  88 E5        30.39F FOG     WCI  10
HUNTINGTON +   LGT SNOW  18  13  82 CALM      30.38F

$$

INZ028-029-035-036-043>045-051>053-011000-
WEST CENTRAL INDIANA

CITY           SKY/WX    TMP DP  RH WIND       PRES   REMARKS
CRAWFORDSVL +  LGT SNOW  20  16  84 CALM      30.37F
GREENCASTLE +  LGT SNOW  23  19  86 CALM      30.37F VSB 1
LAFAYETTE      LGT SNOW  20  18  92 E3        30.39F FOG
TERRE HAUTE    LGT SNOW  25  23  92 CALM      30.39F VSB 1

$$

INZ030>032-037>040-046>048-054>057-064-065-011000-
CENTRAL INDIANA

CITY           SKY/WX    TMP DP  RH WIND       PRES   REMARKS
CP ATTERBURY + LGT SNOW  27  25  93 CALM      30.38F
FRANKFORT +    LGT SNOW  21  21 100 CALM      30.39F
GREENWOOD *+   CLOUDY    23  19  86 CALM      30.38F VSB 1
INDIANAPOLIS   SNOW      23  21  92 CALM      30.37F VSB 1/2
-EAGLE CREEK   LGT SNOW  23  21  92 CALM      30.37F VSB 3/4
KOKOMO *+        N/A     19  16  86 E3        30.39F VSB 3/4
MARION +       LGT SNOW  19  17  90 CALM      30.38F
MT COMFORT *+  CLOUDY    23 N/A N/A CALM      30.38F VSB 1
SHELBYVILLE    LGT SNOW  25  22  88 CALM      30.37F VSB 1
ZIONSVILLE +   LGT SNOW  23  20  87 CALM      30.38F

$$

INZ033-034-041-042-049-050-058-059-011000-
EAST CENTRAL INDIANA

CITY           SKY/WX    TMP DP  RH WIND       PRES   REMARKS
MUNCIE         LGT SNOW  22  19  89 CALM      30.37F VSB 3/4

$$

INZ060-061-067>069-081>083-085>088-011000-
SOUTHWEST INDIANA

CITY           SKY/WX    TMP DP  RH WIND       PRES   REMARKS
EVANSVILLE     CLOUDY    32  24  72 CALM      30.41F
HUNTINGBURG *+ MOCLDY    30  25  80 SE6       30.40F WCI  24
WASHINGTON +   MIX PCPN  31  28  88 S9        30.37F WCI  23

$$

INZ062-063-066-070>080-084-089>092-011000-
SOUTH CENTRAL AND SOUTHEAST INDIANA

CITY           SKY/WX    TMP DP  RH WIND       PRES   REMARKS
BLOOMINGTON    LGT SNOW  27  26  96 SE3       30.36F FOG
NORTH VERNON + MIX PCPN  28  28 100 SE3       30.39F
SEYMOUR +      MIX PCPN  28  27  93 S6        30.40F WCI  22

$$




USA.gov is the U.S. government's official web portal to all federal, state and local government web resources and services.